Content
SEND FEEDBACK

Daily
Averages
Monthly
Summary
United States of America

POTTS JUNCTION, GUAM


Home > North America > United States > Guam
Elevation: 360 feet     Latitude: 13 33N     Longitude: 144 50E

WEATHER
 
SELECT A DAY
Number of Records: 209,165;   Date Range: 1/1/95 - 8/30/14
 
SHARE

PRINT THIS DATA

[ ← Previous Day ]
WEATHER ALMANAC - JULY 31, 2013
[ Next Day → ]
[ °C ]   °F
Weather ElementAverageHighLow
Temperature86.3 °F91 °F (12:54 pm)80.1 °F (3:54 am)
Dewpoint74 °F75.9 °F (8:54 am)72 °F (12:54 pm)
Humidity67.2 %85 % (3:54 am)53 % (12:54 pm)
Barometer29.80 in29.84 in (8:54 pm)29.76 in (2:54 pm)
Wind Speed6.6 mph10.4 mph (8:54 am)
Wind Gust16.1 mph (9:54 am)
Weather ElementAverage
Visibility10 mi
Wind DirectionENE (83.2 °)

Weather ElementTotal
Precipitation---
Cooling Degree Days20.6 (Base 65)
Growing Degree Days35.6 (Base 50)
Averaged from 25 records on July 31, 2013
WEATHER CONDITIONS BREAKOUT
WIND DIRECTION BREAKOUT
WEATHER BY HOUR - JULY 31, 2013
[ °C ]   °F
Local TimeTemperatureDewpointHumidityBarometerVisibilityWind DirectionWind SpeedGust SpeedPrecipitationEventsConditions
1:54 AM82.9 °F75.0 °F77 %29.79 in10.0 miEast (90°)3.5 mphPartly Cloudy
2:54 AM82.9 °F75.0 °F77 %29.78 in10.0 miENE (60°)6.9 mphMostly Cloudy
3:54 AM80.1 °F75.0 °F85 %29.78 in10.0 miCalmClear
4:54 AM82.0 °F75.0 °F79 %29.78 in10.0 miENE (60°)3.5 mphPartly Cloudy
5:54 AM80.1 °F73.9 °F81 %29.79 in10.0 miCalmClear
6:54 AM84.0 °F75.0 °F74 %29.81 in10.0 miCalmScattered Clouds
7:54 AM86.0 °F73.9 °F67 %29.82 in10.0 miEast (100°)6.9 mphClear
8:54 AM87.1 °F75.9 °F69 %29.83 in10.0 miEast (90°)10.4 mphScattered Clouds
9:54 AM88.0 °F75.0 °F65 %29.82 in10.0 miESE (120°)10.4 mph16.1 mphPartly Cloudy
10:54 AM89.1 °F73.0 °F59 %29.81 in10.0 miESE (110°)10.4 mphPartly Cloudy
11:54 AM90.0 °F73.0 °F57 %29.80 in10.0 miEast (80°)9.2 mphPartly Cloudy
12:54 PM91.0 °F72.0 °F53 %29.78 in10.0 miEast (90°)8.1 mphPartly Cloudy
1:54 PM90.0 °F73.9 °F59 %29.77 in10.0 miESE (110°)8.1 mphPartly Cloudy
2:19 PM87.8 °F75.2 °F66 %29.79 in10.0 miESE (120°)10.4 mphMostly Cloudy
2:39 PM89.6 °F73.4 °F59 %29.79 in10.0 miSE (130°)9.2 mphScattered Clouds
2:54 PM90.0 °F72.0 °F55 %29.76 in10.0 miESE (120°)9.2 mphPartly Cloudy
3:54 PM90.0 °F72.0 °F55 %29.76 in10.0 miESE (110°)9.2 mphClear
4:54 PM88.0 °F72.0 °F59 %29.77 in10.0 miESE (110°)8.1 mphPartly Cloudy
5:54 PM87.1 °F75.0 °F67 %29.78 in10.0 miEast (90°)6.9 mphPartly Cloudy
6:54 PM87.1 °F73.9 °F65 %29.79 in10.0 miEast (80°)6.9 mphClear
7:54 PM84.9 °F73.9 °F69 %29.82 in10.0 miEast (100°)4.6 mphClear
8:54 PM84.9 °F73.9 °F69 %29.84 in10.0 miEast (80°)5.8 mphClear
9:54 PM84.0 °F73.9 °F72 %29.84 in10.0 miEast (80°)5.8 mphClear
10:54 PM84.9 °F73.9 °F69 %29.84 in10.0 miEast (80°)5.8 mphClear
11:54 PM84.9 °F75.0 °F72 %29.83 in10.0 miENE (70°)4.6 mphPartly Cloudy
Hourly data recorded from PGUM, located miles away from Potts Junction, Guam







STORIES FROM OUR PARTNERS